User: anonymous   Login
Location: Arezzo
(43.4170°N, 11.8830°E)
Time: 08:24:01
(UTC+02:00)
Language:

STARLINK-2753 - Orbit

View from above orbital plane
View from above orbital plane
View from above satellite
View from above satellite

Ground track
Ground track

The orbit data is extracted from the following two-line orbital elements,

1 48696U 21044BL  21265.83334491  .00020847  00000-0  14147-2 0  9995
2 48696  53.0651 203.7494 0001802  72.5231 336.5136 15.06388829 19462
Epoch (UTC): 22 September 2021 20:00:01
Eccentricity: 0.0001802
inclination: 53.0651°
perigee height: 546 km
apogee height: 548 km
right ascension of ascending node: 203.7494°
argument of perigee: 72.5231°
revolutions per day: 15.06388829
mean anomaly at epoch: 336.5136°
orbit number at epoch: 1946

The dashed part of the orbit path shows where the satellite is in the earth's shadow,  

DLR